Find Kosmos-1897

NORAD ID: 18575 Int'l Des: 1987-096 Owner: UNKS Country: SU operational
MEOCIRCULAR

Live-Position

3D-Globus wird geladen...

Über Kosmos-1897

Beschreibung wird geladen...

Nächste Überflüge

Passes for default location (London). Set your location on the main map for personalized predictions.

Höhenverlauf

Loading altitude history...

Zweizeiliger Elementsatz

1 18575U 87096A 26104.67339649 -.00000154 00000-0 00000+0 0 9996
2 18575 11.1134 327.3186 0006185 129.9270 66.1877 1.00323456140553
Epoch: 14. Apr. 2026 • Age: 15 hours

Aktueller Status

Höhe 35761.0 km
Geschwindigkeit 3.08 km/s
Subsatellitenpunkt 9.85°N, 77.79°E
Startdatum 26. Nov. 1987
Alter 38.3 years
Typ other

Technische Details

Klassifizierung Payload
Masse 2400.00 kg
Trockenmasse 2200.00 kg
Gesamtmasse 2400.00 kg
Länge 6.60 m
Durchmesser 4.10 m
Spannweite 16.00 m
Form Cyl + 2 Pan + 2 Dish
Hersteller NPOPM
Bus-Typ KAUR-4 Al'tair
Phasenstatus In Orbit
Besitzer/Staat UNKS/SU

Most Searched